Погода в Жироне

Испания     41°58′57″N   2°49′07″E
темп.,
°C
ветер,
м/с
пор.,
м/с
влажн.,
%
обл.,
%
осадки,
мм/ч
давл.,
гПа
погр.,
м
24 июня, чт
чт2423:00+16ссз128649 1.1 101935
02:00+15сз22895 1.4 102048
05:00+14зсз21876 0.0 101931
08:00+16ссз12784 0.0 1020145
11:00+23в11507 0.0 10211279
14:00+24ю4346100 0.0 10201419
17:00+25юв324199 0.1 10202000
20:00+22ю2250100 0.1 1020583
25 июня, пт
пт2523:00+17зюз22722 0.0 102282
02:00+16зсз117549 0.0 102226
05:00+15сз22800 0.0 102132
08:00+18сз12680 0.0 1021164
11:00+25св12440 0.0 10201267
14:00+29ююв36295 0.0 10182660
17:00+27ююв66453 0.0 10171223
20:00+24юв23585 0.0 1017666
26 июня, сб
сб2623:00+19юз1282100 0.0 1018113
02:00+18зюз11835 0.0 101836
05:00+17зюз11835 0.0 101728
08:00+20зсз116618 0.0 1017143
11:00+28ююв233614 0.0 10151092
14:00+32ю46285 0.0 10132075
17:00+32ю78304 0.0 10121669
20:00+27ю57435 0.0 1012441
27 июня, вс
вс2723:00+21юз2464100 0.0 1014109
02:00+21юз1263100 0.0 101484
05:00+18з217299 0.1 101318
08:00+21ю1258100 0.1 1013150
11:00+26ю3544100 0.0 1012970
14:00+30ююв663010 0.0 10111428
17:00+30ююв673113 0.0 10101078
20:00+26ююв464475 0.0 1010542
28 июня, пн
пн2823:00+20ююз017394 0.0 1012108
02:00+18ссв238516 0.0 1013132
05:00+17с138711 0.0 1013121
08:00+18ссв247011 0.0 1014342
11:00+22св335044 0.0 1015893
14:00+26всв344284 0.0 10151638
17:00+26юв234583 0.1 10151669
20:00+23ю345553 0.1 1016804